Location: Bailen
(14.1842°N, 120.7958°E)
Time: 18:24:58
(UTC+00:00)

Cosmos 2074 Rocket - Pass Details

Date: 12 January 2026
Orbit: 965 x 986 km, 82.9° (Epoch: 17 February)

Event Time Altitude Azimuth Distance (km) Brightness Sun altitude
Rises 21:43:21 0° 192° (SSW) 3,675 7.1 -10.1°
Reaches altitude 10° 21:45:53 10° 196° (SSW) 2,730 6.4 -9.6°
Maximum altitude 21:52:02 58° 274° (W) 1,131 4.1 -8.2°
Drops below altitude 10° 21:58:12 10° 353° (N) 2,738 6.1 -6.8°
Sets 22:00:46 0° 357° (N) 3,686 6.8 -6.2°
